Theta_e
301 300 302 303 304 304 304 304 304 303 302 303 304 305 305 305 305 305 304 305 305 305 306 306 305 305 305 305 305 305 306 308 307 306 307 306 306 307 307 307 308 309 310 311 312 314 313 314 314 314 315 315 317 316 316 317 318 322 321 318 317 316 317 318 318 317 317 314 313 313 311 309 308 306 305 305 303 302 301 300 299 299 299 298 298 298 298 299
301 301 303 303 303 303 304 305 304 304 302 302 304 304 304 305 305 305 305 305 305 306 306 307 306 305 306 305 305 304 306 309 307 305 306 305 305 306 308 307 308 309 310 311 311 313 313 313 313 314 314 314 314 314 315 316 317 318 316 315 315 314 314 316 316 315 314 312 311 311 311 310 309 307 306 307 306 304 303 302 301 300 299 299 299 299 299 298
301 302 303 303 303 303 303 304 304 304 302 302 303 304 304 305 305 305 305 305 305 306 307 308 307 306 306 305 306 304 306 310 307 305 305 304 305 306 307 308 308 310 310 310 311 312 313 313 314 313 313 312 312 312 312 313 315 315 314 313 312 311 311 312 313 312 311 310 309 309 308 308 308 308 307 305 304 303 303 303 303 301 300 300 299 299 299 298
301 302 304 303 303 303 303 304 303 303 302 302 303 304 305 306 306 306 305 305 306 306 307 308 308 307 306 305 305 304 308 312 307 304 304 303 305 306 307 308 309 310 310 311 311 312 313 313 314 313 312 312 311 310 310 311 313 313 313 312 311 310 309 310 311 311 310 310 309 308 307 305 305 307 307 306 303 302 301 301 302 301 300 300 299 299 299 298
301 302 303 303 303 303 302 302 302 302 302 303 304 304 305 306 306 306 306 306 306 306 306 307 308 308 308 307 307 307 309 312 307 304 304 304 305 306 307 309 310 311 311 311 312 312 313 312 312 312 312 312 311 311 309 309 310 309 310 311 310 309 309 308 308 309 310 310 309 308 306 305 303 303 304 304 302 300 300 300 300 299 299 299 298 298 298 297
301 301 303 303 303 303 302 302 302 303 303 304 304 304 305 305 306 306 306 307 306 306 306 307 307 308 308 309 309 309 310 309 305 304 304 304 305 306 307 308 310 310 311 312 312 312 312 311 311 310 310 310 309 309 309 309 308 307 307 307 308 308 308 306 307 309 310 309 308 307 306 304 302 301 300 300 299 299 299 298 298 298 298 298 298 298 297 297
301 301 302 303 303 303 303 303 303 303 304 304 305 305 305 305 306 306 306 307 307 307 307 306 307 309 310 310 308 307 307 305 304 304 304 304 305 306 308 308 309 310 311 312 312 312 312 311 311 310 309 309 308 307 307 307 306 306 306 306 306 306 306 306 306 307 308 308 307 306 305 303 301 300 299 298 298 298 297 297 297 297 297 297 296 296 296 296
301 301 301 302 303 303 304 304 304 304 305 305 305 305 305 306 306 307 307 307 307 307 307 307 307 307 309 312 310 306 305 304 303 304 304 305 305 306 308 308 309 309 309 310 311 312 311 311 310 310 310 308 308 307 307 306 305 305 305 305 305 305 305 305 306 306 306 306 305 303 302 301 300 299 298 297 297 297 297 297 297 297 297 297 296 296 296 296
301 301 301 302 302 303 304 304 304 304 305 305 305 306 306 306 306 306 307 308 308 307 308 308 307 307 310 314 313 307 305 303 304 304 304 305 305 305 307 308 309 308 308 308 309 310 310 310 310 309 309 309 308 308 307 306 305 304 304 304 304 304 304 304 305 306 305 304 303 302 302 301 301 301 299 298 298 298 297 297 298 298 297 297 297 297 297 296
302 302 302 302 302 302 303 304 305 305 305 305 305 305 306 306 305 306 307 308 308 308 308 308 308 309 311 313 311 307 304 303 304 304 304 305 305 305 306 307 308 308 308 307 307 308 308 308 308 308 307 307 307 307 306 306 304 304 304 303 303 303 303 304 304 305 305 305 304 303 303 302 302 302 299 298 298 298 298 298 298 298 298 297 297 297 297 297
302 302 302 302 302 302 302 304 305 305 305 305 305 305 305 306 306 306 307 307 308 309 308 308 308 309 307 306 307 305 303 304 305 303 304 305 305 305 305 306 307 308 308 308 307 307 307 307 307 307 307 306 305 305 305 305 304 303 303 303 303 303 303 303 303 304 304 304 305 304 303 302 302 301 299 298 298 298 298 298 298 298 298 298 298 298 298 298
302 303 302 302 302 302 303 305 305 305 305 305 306 305 306 306 306 307 307 307 307 308 309 308 309 310 307 305 305 304 303 305 305 303 304 306 305 305 305 306 306 307 308 308 308 307 307 307 307 307 306 305 305 304 304 304 304 303 304 303 303 303 303 303 303 304 304 303 302 303 303 302 300 299 298 298 298 298 298 298 298 298 298 299 298 298 298 298
303 302 302 302 302 303 304 305 304 304 305 305 306 306 306 306 307 307 307 308 308 308 308 309 309 309 308 307 304 304 305 305 304 303 304 305 306 305 305 306 306 306 307 308 309 308 307 307 307 306 306 305 304 305 305 304 304 304 304 303 304 304 303 303 303 303 303 302 301 302 304 302 299 299 298 298 298 298 299 299 299 299 299 299 300 300 300 299
303 302 302 302 302 304 305 304 304 304 304 305 306 306 306 306 307 307 307 308 309 310 309 309 311 310 308 307 305 305 305 304 304 304 304 304 305 305 305 306 306 306 307 307 308 308 307 307 306 306 305 305 304 305 305 305 305 305 304 305 308 307 303 303 303 303 303 302 302 302 304 302 299 299 298 298 298 298 299 299 300 300 300 300 300 300 300 299
303 303 302 302 303 304 305 305 305 305 305 306 306 306 306 306 307 307 307 307 309 311 310 310 313 312 309 307 306 305 305 305 304 304 305 304 304 306 306 306 307 307 308 308 308 309 308 308 307 305 305 304 304 305 306 305 306 306 307 309 310 307 303 303 303 303 303 302 302 302 303 301 299 298 298 298 298 298 299 300 300 300 300 300 300 300 300 299
303 303 302 302 303 304 306 306 306 306 307 307 307 307 306 306 306 306 306 306 308 309 310 310 311 311 310 309 307 306 306 306 305 305 305 304 304 306 306 307 308 307 309 310 310 311 310 311 311 306 305 305 306 307 308 308 309 308 310 311 310 306 305 303 302 303 303 303 302 303 303 300 299 298 298 298 298 299 300 300 300 300 300 300 300 300 300 299
303 303 303 303 303 304 305 306 306 307 306 306 306 307 308 307 307 307 306 306 309 310 310 310 309 311 311 308 307 306 306 306 306 305 305 304 304 306 307 308 309 309 311 311 311 312 311 314 314 309 305 305 304 309 313 313 312 310 310 309 307 306 305 304 303 302 303 304 303 302 302 300 299 298 298 298 298 299 300 300 300 300 300 300 300 300 299 299
303 304 303 303 304 304 305 305 305 306 305 305 305 305 307 309 308 308 308 309 311 312 312 310 310 314 312 308 307 307 306 306 306 305 305 305 304 307 309 309 310 312 315 314 312 313 313 312 311 306 304 303 302 306 312 311 308 309 310 309 307 306 305 304 303 302 302 304 304 302 301 299 299 299 298 299 299 300 300 300 300 299 300 300 300 300 299 299
303 304 304 303 304 305 304 305 305 305 305 305 305 304 307 312 311 308 307 309 312 314 315 311 311 313 310 308 307 306 305 306 306 305 305 306 306 308 310 310 312 314 316 314 311 313 311 308 307 305 304 302 301 302 305 306 305 306 308 308 307 305 304 303 302 302 301 303 303 303 301 300 299 299 299 299 300 300 300 299 300 300 300 300 300 300 300 300
303 304 304 304 305 306 305 305 305 305 305 304 305 309 314 318 314 308 306 308 310 311 312 311 310 309 308 307 306 305 307 308 306 305 305 307 308 309 311 312 313 313 314 313 311 312 308 304 304 304 303 301 301 301 302 304 304 306 308 308 307 305 304 303 302 302 301 302 303 302 302 301 300 300 299 300 300 300 300 300 300 300 300 300 300 300 300 300
303 304 305 304 304 307 307 306 305 305 305 304 307 315 319 322 318 310 308 309 308 308 310 309 308 307 306 306 305 305 310 311 307 305 304 307 309 311 313 313 313 313 313 312 310 309 306 304 303 303 302 300 301 301 302 304 305 306 307 308 307 306 303 302 302 302 301 302 303 302 302 302 301 300 300 300 300 300 300 300 300 300 300 300 300 300 300 299
303 304 305 304 304 307 306 305 305 304 305 305 310 314 311 311 313 309 309 310 308 308 310 309 308 308 307 306 304 305 309 310 308 305 304 307 311 312 313 311 311 310 311 313 312 307 304 303 302 301 301 300 301 302 303 304 306 308 309 309 308 306 304 302 302 302 301 302 303 302 303 303 301 300 300 300 300 300 300 299 300 300 300 300 299 299 300 300
303 304 305 305 304 305 306 305 305 303 306 307 309 308 305 306 306 307 311 312 310 309 309 310 309 308 308 307 305 306 307 306 307 306 304 307 311 313 312 309 308 307 307 311 312 308 306 303 301 300 301 302 303 303 303 305 306 306 308 309 307 306 305 304 302 302 302 302 302 303 303 303 301 300 300 300 300 300 299 299 299 300 300 300 300 300 300 299
303 303 305 305 304 305 306 306 306 305 307 307 306 304 304 306 305 307 314 315 313 310 307 308 307 307 308 306 306 308 307 305 306 305 303 306 310 312 311 309 309 307 305 307 307 306 305 302 300 301 302 305 304 302 302 306 306 305 305 306 305 303 304 305 303 302 302 302 303 303 304 304 302 301 301 300 300 299 299 299 299 300 301 300 300 301 300 299
303 303 304 305 305 305 305 306 307 307 307 306 305 304 303 305 304 306 315 317 314 312 308 307 307 306 305 305 307 309 308 307 306 305 304 305 309 311 309 308 308 308 308 307 306 305 304 302 301 303 304 307 306 302 302 306 308 306 303 303 303 302 302 304 304 304 304 304 303 303 306 307 303 302 301 300 299 299 299 299 299 300 301 301 300 300 300 300
302 303 303 305 306 305 308 309 306 307 310 306 303 304 303 305 303 305 317 321 315 314 311 310 310 308 306 306 308 309 311 311 306 305 305 304 307 309 309 309 308 309 308 307 306 305 304 303 303 304 305 307 306 303 302 304 309 308 303 302 303 303 304 305 305 305 307 305 303 303 306 306 304 303 302 300 300 300 300 300 300 300 300 300 300 300 300 299
302 303 303 304 305 306 311 310 305 308 316 311 303 303 303 304 303 306 317 321 316 313 311 312 311 308 308 308 308 309 313 313 307 305 306 306 307 308 310 310 308 308 307 308 309 306 304 304 304 306 307 306 304 304 303 302 308 308 303 302 304 304 305 306 306 307 307 306 305 305 305 305 305 304 302 301 301 301 301 301 301 301 300 300 300 299 300 299
302 302 303 304 304 305 306 306 306 307 311 308 302 303 304 303 303 309 318 319 314 311 309 311 310 307 309 310 309 309 309 310 309 307 306 306 307 309 311 310 308 307 307 311 310 304 302 303 304 307 307 305 303 303 302 302 306 306 302 303 304 303 305 306 307 308 307 307 306 305 304 305 306 304 301 300 301 302 302 301 301 301 301 301 300 300 300 300
302 302 302 303 304 304 303 304 306 304 302 302 302 303 303 302 306 315 319 315 313 311 308 310 310 308 311 312 310 310 308 308 309 307 307 308 307 308 310 310 308 306 306 309 308 304 302 301 302 304 304 303 302 301 301 302 304 303 301 303 304 304 306 306 307 307 307 309 307 304 303 305 306 304 302 301 302 302 301 301 301 301 301 301 300 300 300 300
301 302 302 302 303 304 305 304 302 301 300 300 301 300 301 306 314 320 318 313 313 312 309 310 310 308 311 313 311 310 309 309 308 307 309 309 307 307 308 309 309 306 305 306 305 304 301 300 302 303 302 302 301 301 301 302 303 302 302 306 307 306 306 306 306 305 308 310 306 302 302 303 305 304 303 302 301 301 301 300 300 301 301 301 301 300 300 300
300 302 301 302 302 303 309 309 302 302 301 299 300 302 307 315 321 319 315 313 314 312 310 311 310 309 311 311 309 308 309 309 308 309 309 308 306 305 306 307 308 309 310 309 307 304 303 304 303 301 300 301 302 303 303 301 302 304 306 307 309 308 306 306 306 306 311 312 305 302 301 303 306 304 301 301 301 300 300 300 300 300 300 301 301 300 300 300
300 302 301 302 302 302 307 307 302 302 302 299 303 308 316 320 319 317 313 312 313 312 310 310 309 309 309 309 307 307 309 309 308 309 309 308 306 304 304 304 305 312 315 313 311 308 306 305 303 302 301 300 302 305 306 305 305 307 308 307 310 312 308 308 311 310 312 310 304 301 301 304 305 303 301 301 300 300 300 300 300 300 299 300 300 300 300 300
299 302 301 301 302 301 303 302 302 303 301 301 308 316 320 318 316 315 312 311 312 309 309 309 307 308 309 310 307 305 307 308 308 309 309 309 308 305 305 303 302 310 314 311 312 311 309 307 304 304 303 301 301 304 306 308 307 307 307 307 311 312 309 309 311 311 311 308 303 300 302 306 304 302 301 300 300 300 299 300 300 300 299 300 300 300 300 301
300 301 302 301 301 302 301 301 303 302 300 305 315 321 321 317 314 313 311 309 307 306 308 308 309 309 309 308 306 305 308 310 309 309 307 308 309 307 305 303 302 305 307 310 311 310 312 313 306 303 303 301 300 300 301 303 306 307 305 306 310 309 308 310 311 311 311 309 305 303 304 306 305 303 302 300 300 300 299 299 300 300 300 301 301 301 301 301
300 301 301 301 301 302 301 302 303 302 304 312 322 323 320 315 313 314 312 308 305 306 309 309 310 311 308 306 305 305 309 311 308 307 307 307 307 305 302 301 301 301 305 311 309 307 312 312 305 301 301 300 300 300 298 300 306 308 305 307 310 306 305 309 308 306 307 307 308 307 306 305 303 302 301 300 300 299 299 300 299 300 301 301 301 301 301 300
300 303 305 302 300 301 300 301 303 303 308 319 327 324 316 311 312 314 313 309 307 308 310 311 312 312 309 308 306 306 309 309 307 309 308 305 305 305 302 301 300 300 303 308 307 306 311 310 303 302 301 298 299 299 298 301 305 306 306 307 306 301 301 307 306 303 303 307 309 307 305 303 301 301 301 300 300 300 300 300 299 300 301 301 301 302 301 300
302 305 308 302 299 302 301 301 303 304 311 325 329 319 309 305 305 305 307 306 307 308 310 312 313 312 311 310 308 307 309 308 308 311 310 307 305 304 303 302 301 300 300 304 305 304 307 309 304 302 304 300 297 300 301 301 302 304 305 304 302 301 301 305 307 305 306 309 308 305 304 304 302 302 302 301 301 301 301 300 300 301 301 301 301 301 301 300
301 305 309 303 299 302 301 301 303 306 315 324 322 311 304 303 302 301 303 304 305 307 309 312 312 309 310 311 308 306 309 311 311 310 310 309 307 304 302 303 302 300 299 301 304 302 304 310 306 301 303 302 298 302 306 304 302 303 303 301 302 305 307 307 307 307 309 309 308 307 306 305 303 302 301 301 301 301 300 300 300 300 300 300 301 301 301 300
303 311 317 306 299 303 304 303 305 311 324 326 319 312 305 303 302 300 300 302 304 306 308 310 309 307 308 310 308 305 307 310 308 309 310 309 308 304 302 302 301 301 300 300 303 302 302 310 310 303 301 302 302 303 306 304 302 303 303 302 303 305 305 305 305 306 309 309 309 310 310 305 302 302 301 301 300 300 300 300 300 300 300 300 300 300 301 301
305 316 320 304 299 304 305 306 309 316 325 321 314 309 303 302 303 300 299 301 303 305 308 309 308 308 308 307 305 305 305 306 305 307 308 306 306 304 301 300 300 301 300 300 301 301 302 308 311 306 301 304 306 303 301 301 301 303 305 304 304 303 302 303 303 303 305 307 307 308 310 306 302 301 301 300 300 300 300 300 301 301 300 300 300 300 301 301
306 318 319 303 300 304 307 311 312 311 313 310 308 305 301 303 304 300 299 300 301 302 304 306 307 307 307 306 305 304 304 304 304 305 305 304 305 305 301 298 298 299 300 302 302 301 303 306 309 309 306 307 305 298 295 297 297 300 302 302 302 302 303 306 306 303 302 304 305 305 308 309 304 301 301 300 300 300 300 300 301 301 300 300 300 300 300 301
312 320 314 303 301 306 313 318 310 306 308 308 305 303 302 303 303 301 300 299 300 300 300 304 307 305 305 305 306 306 306 305 305 305 304 303 304 303 299 296 297 298 299 302 302 299 300 302 307 309 305 303 300 295 295 295 295 297 299 301 301 301 303 306 308 306 303 302 301 301 306 309 304 301 302 301 300 300 300 300 300 300 300 300 300 300 300 301
321 318 310 304 300 306 320 323 310 304 304 301 300 300 300 301 302 302 301 300 301 300 301 303 305 305 305 303 304 306 306 305 305 303 302 302 301 298 297 296 298 298 299 302 302 299 299 302 307 307 303 299 296 294 294 293 295 300 301 300 300 300 301 303 303 304 303 303 303 303 308 310 304 301 302 301 300 300 301 300 300 300 300 300 300 300 300 301
317 314 312 307 301 308 326 328 316 307 301 299 301 301 300 300 301 303 302 302 301 301 302 303 302 304 303 301 302 303 304 306 305 302 301 303 301 297 296 296 297 299 300 302 302 301 303 304 305 309 311 308 304 302 301 298 298 302 302 300 300 300 300 301 300 300 303 305 304 305 311 311 304 303 303 301 301 301 301 301 301 301 301 300 300 300 300 301
312 313 316 310 303 309 321 318 313 309 303 303 305 301 301 301 299 300 302 301 300 300 303 304 302 302 301 300 301 300 300 304 305 302 301 302 300 296 296 296 297 297 297 298 297 299 303 303 303 310 316 317 317 314 310 306 302 302 301 299 299 300 301 302 302 302 305 305 302 305 313 310 303 303 304 303 302 302 301 302 301 300 300 300 300 300 301 300
315 316 320 318 310 309 311 307 306 308 306 308 308 302 302 304 300 298 300 301 301 300 301 301 301 302 301 301 302 302 300 300 302 303 301 301 300 296 295 297 297 296 297 297 296 296 300 301 301 305 310 311 312 310 306 304 303 302 302 301 300 300 300 301 302 305 307 305 303 305 307 306 303 303 303 303 303 302 301 301 301 300 300 301 301 301 301 300
316 318 316 316 315 314 312 307 306 308 309 312 311 305 304 304 301 299 300 301 301 300 300 300 300 303 305 303 303 304 301 299 300 302 301 300 299 295 294 296 297 296 297 297 296 297 301 303 301 301 305 305 305 304 303 301 301 301 302 302 301 300 299 300 302 305 305 306 308 307 303 303 304 303 303 302 301 301 301 301 301 300 300 300 300 300 300 300
313 314 304 303 314 319 315 311 308 309 310 310 308 305 304 304 303 302 301 300 300 300 302 304 303 304 305 306 306 306 304 302 302 302 300 300 299 297 296 296 296 296 296 296 296 297 301 303 300 299 303 304 301 302 302 301 300 300 300 301 301 301 300 300 301 302 302 305 309 306 302 303 302 301 301 301 300 301 301 301 301 300 300 300 300 300 301 300
307 309 301 299 309 311 308 307 308 309 309 306 306 305 304 306 306 303 301 300 301 300 302 307 307 305 304 304 307 308 305 305 305 303 301 301 300 300 301 300 297 295 295 296 295 294 299 303 300 298 302 304 300 300 301 300 299 299 299 300 301 300 300 300 299 300 301 302 303 302 301 301 300 299 300 300 301 302 302 301 301 301 301 301 300 301 300 300
309 312 307 305 307 303 300 303 306 311 309 305 308 307 304 307 308 303 301 302 305 303 302 305 307 305 304 304 307 308 305 306 309 305 304 305 303 301 302 302 301 296 294 296 295 294 298 303 300 298 303 306 301 298 299 298 298 300 299 299 300 300 301 300 299 299 300 300 300 299 300 299 298 300 300 301 303 303 302 302 301 301 301 301 301 301 300 300
304 305 305 313 314 304 302 304 305 310 310 307 310 308 304 307 307 304 302 302 304 305 304 306 307 304 302 305 308 305 301 303 306 304 302 304 304 302 301 301 302 300 297 296 296 295 297 301 300 299 304 309 303 301 301 298 297 300 301 299 298 299 301 301 300 299 299 300 300 300 301 301 301 301 302 302 303 303 303 303 302 302 301 300 300 300 300 300
300 300 302 314 319 306 303 306 305 309 311 309 309 308 306 308 307 306 307 302 300 302 301 304 307 304 304 309 308 302 299 299 299 299 299 300 300 300 300 300 301 301 299 297 297 297 298 300 301 301 306 310 305 302 302 301 304 310 309 303 300 298 299 299 300 300 299 299 301 303 304 304 303 303 302 302 303 303 303 303 302 302 301 301 300 300 300 300
Wind_Speed
14 16 17 17 17 15 12 10 7 5 4 5 7 11 14 17 16 12 13 16 18 17 12 5 7 12 13 11 6 4 6 14 27 34 28 29 33 26 21 17 17 15 12 17 11 1 4 8 8 10 9 6 5 5 8 10 6 3 5 7 6 5 5 5 6 7 7 8 6 5 9 10 8 7 6 9 13 11 10 10 9 10 10 9 7 5 3 1
14 15 17 19 20 18 13 10 7 4 4 3 4 6 11 17 17 11 9 15 18 19 17 10 5 10 13 12 10 6 3 12 28 30 30 37 34 25 20 16 16 16 15 19 19 11 7 7 9 11 7 6 5 7 7 7 9 7 4 7 6 5 6 7 9 9 8 9 8 8 9 8 7 6 4 5 10 10 10 8 7 8 7 7 6 3 2 1
14 14 16 20 22 21 15 10 8 6 5 4 4 6 10 17 19 13 7 11 16 18 21 17 8 4 8 9 9 6 5 6 21 24 33 41 34 27 21 16 14 14 15 13 16 14 10 11 13 11 7 8 6 7 8 5 7 7 5 7 5 6 8 9 10 10 9 10 10 9 8 8 6 4 5 8 11 9 9 6 5 6 5 5 4 4 4 3
13 13 15 20 23 22 16 11 9 8 7 5 5 7 11 18 23 20 9 6 10 15 22 25 22 10 0 4 5 2 3 3 11 20 35 39 35 28 20 18 14 12 13 11 11 9 11 15 13 10 8 8 7 9 10 6 4 6 6 8 7 7 8 8 9 10 10 9 10 9 9 9 7 6 6 10 10 8 7 6 6 6 5 4 5 5 4 3
12 11 13 18 22 22 17 12 10 9 8 7 7 7 9 13 19 22 16 6 4 8 15 24 33 30 18 6 2 3 3 2 9 25 35 36 36 29 19 19 16 13 14 10 8 6 11 13 10 9 7 6 6 7 9 7 5 7 9 9 8 7 8 7 7 8 8 9 9 8 8 7 7 9 8 9 9 5 5 6 6 6 5 5 4 3 3 3
11 11 11 15 20 21 18 12 10 9 8 7 7 7 5 8 13 19 22 17 7 2 3 9 19 29 31 24 20 12 4 3 11 26 32 34 34 27 17 17 17 15 15 9 5 9 11 10 10 8 6 8 10 9 9 7 6 8 8 9 9 8 9 7 5 6 7 9 8 8 8 8 10 10 10 12 11 5 5 6 6 6 5 4 4 2 2 3
11 11 10 11 15 19 18 13 10 8 8 9 9 8 6 8 11 15 21 24 20 9 3 2 1 9 17 23 33 28 13 5 15 25 29 32 32 26 16 14 17 16 17 14 10 11 9 10 11 7 8 10 10 12 13 12 11 11 9 9 10 10 10 8 7 8 8 10 9 8 9 9 11 9 8 11 9 5 6 6 5 5 3 3 4 4 3 4
10 11 10 9 11 15 18 14 10 8 8 11 12 12 12 14 16 16 16 19 23 22 10 3 5 3 4 7 17 19 10 8 20 25 28 30 31 27 17 15 17 17 21 20 12 8 7 10 10 6 8 9 9 11 12 13 13 10 10 9 10 10 10 8 8 9 9 8 9 11 11 10 11 10 9 9 6 4 5 5 3 3 4 4 5 4 2 2
10 10 10 10 9 10 14 16 11 7 6 8 10 12 13 15 16 17 17 15 15 22 22 11 3 2 4 2 6 11 7 14 21 23 27 27 28 27 24 23 20 20 23 23 18 14 9 8 8 7 9 10 9 9 8 9 7 7 11 10 10 10 9 8 8 9 8 6 8 12 11 9 9 8 8 7 4 2 3 4 2 2 4 4 3 3 3 3
11 9 11 11 11 9 11 15 12 5 5 4 5 7 8 8 13 15 15 17 15 13 19 25 19 12 12 9 9 9 8 17 20 22 25 24 25 28 29 27 24 22 22 22 23 18 10 9 10 8 9 9 8 8 9 9 8 9 12 11 11 10 8 8 8 8 7 6 7 9 8 6 4 3 4 5 3 2 1 4 1 2 3 3 2 2 2 2
11 10 10 11 12 10 10 14 11 5 5 5 5 4 4 6 11 14 13 16 20 15 9 16 25 28 31 24 12 7 10 16 19 22 21 21 24 28 29 27 25 24 21 21 23 19 11 8 6 5 6 8 10 12 12 10 11 12 13 12 11 10 8 7 7 5 4 4 5 8 8 7 5 4 4 3 2 3 1 4 2 2 2 2 2 0 1 2
11 9 10 11 12 10 11 15 8 6 7 8 7 6 6 8 11 14 14 13 16 21 15 11 12 16 28 26 11 6 11 14 17 18 17 19 21 23 25 26 26 24 21 17 18 20 13 6 4 4 5 5 8 9 8 9 11 11 11 11 10 9 9 7 5 4 4 3 3 4 5 6 6 5 4 2 1 2 1 2 2 2 2 1 1 1 2 1
11 9 10 11 11 11 13 13 9 8 7 8 9 10 11 12 12 14 18 16 12 16 21 21 16 13 16 13 8 13 13 13 15 12 14 17 16 17 21 22 23 22 20 15 15 19 18 14 13 11 6 4 5 6 8 8 8 8 8 7 7 7 7 6 4 2 4 2 2 2 2 4 5 4 4 1 1 3 2 2 3 3 2 1 1 2 1 6
11 9 10 10 10 11 13 13 13 11 8 8 7 8 10 12 14 15 19 21 17 13 12 14 15 19 17 6 4 16 15 13 14 13 17 18 13 14 17 19 19 19 19 19 18 17 16 17 17 12 7 7 5 7 9 5 3 4 6 3 2 5 3 5 4 3 3 2 2 1 1 2 4 4 3 1 3 4 1 4 4 2 2 1 2 2 4 10
11 10 10 11 9 11 14 17 19 17 15 13 10 6 6 6 10 11 12 15 18 16 15 14 11 12 12 5 3 13 16 16 18 19 19 18 15 11 13 15 15 16 17 18 16 15 14 12 11 8 6 6 5 6 6 4 3 2 4 0 3 5 3 4 6 5 3 2 4 2 1 3 3 4 2 1 3 4 2 4 2 2 3 4 4 5 5 8
12 10 11 11 8 10 13 18 24 26 26 25 24 21 13 5 1 2 7 9 11 14 18 18 12 10 7 3 5 11 16 17 17 19 16 15 14 10 14 13 9 11 11 11 12 9 8 6 5 5 6 3 1 2 3 3 2 1 3 3 4 3 4 2 4 6 5 2 4 3 1 3 3 4 3 0 2 4 2 3 2 4 4 4 4 4 4 5
13 11 11 10 7 7 8 13 18 22 21 19 21 25 27 22 8 2 4 3 5 10 16 18 11 11 8 5 6 8 12 15 16 20 17 12 11 11 13 9 6 10 6 6 13 9 4 4 2 3 6 5 4 3 2 3 4 4 4 3 3 4 3 2 1 5 8 4 2 2 3 4 3 4 3 1 2 3 2 3 3 4 3 4 4 4 5 4
15 11 11 10 7 4 4 5 5 4 3 7 10 11 17 26 26 20 14 8 5 4 11 19 13 7 6 7 6 8 12 14 16 21 17 9 8 11 10 6 6 10 6 3 9 9 4 4 3 4 7 8 9 7 3 3 4 4 4 2 3 5 6 4 2 4 8 5 4 6 5 5 4 4 3 2 2 2 3 3 3 3 3 4 4 4 4 4
16 12 11 11 8 3 2 5 6 6 7 8 10 9 4 9 20 31 34 26 14 5 4 12 10 4 2 6 8 12 11 9 13 20 19 11 9 10 7 5 5 5 3 2 6 8 4 4 6 6 7 8 8 8 5 3 4 4 4 4 5 4 4 4 3 3 6 4 4 5 5 4 4 4 3 3 2 1 2 2 1 2 3 4 4 4 4 4
16 14 11 11 10 6 2 4 6 7 6 7 9 8 2 0 6 13 23 23 14 8 7 4 6 6 2 3 10 14 8 3 10 19 22 15 10 8 5 3 3 7 6 3 5 5 4 7 7 5 5 6 7 7 6 4 4 5 3 4 5 4 3 3 3 3 4 3 3 4 5 4 4 4 4 3 2 2 2 2 1 2 3 3 3 4 4 4
17 15 11 11 11 9 5 2 4 4 3 5 6 5 1 1 4 2 3 11 11 10 10 5 6 7 3 3 11 14 4 2 12 21 26 18 6 4 5 3 4 6 4 3 5 2 5 9 6 3 3 5 6 5 6 5 4 4 3 3 4 4 3 3 3 3 2 2 1 2 3 4 4 3 4 3 3 2 1 2 2 3 3 2 3 4 4 3
17 15 12 10 12 12 9 4 2 2 1 4 7 8 5 4 10 10 4 6 7 7 8 6 7 6 2 4 12 12 3 5 12 19 27 21 7 4 5 5 6 4 4 1 3 3 8 7 4 3 3 5 4 3 5 5 4 5 4 1 3 3 2 2 2 2 2 2 0 0 1 3 5 4 3 3 2 2 3 3 2 3 4 3 4 4 4 4
18 16 12 9 10 13 13 8 5 4 5 10 14 12 9 11 14 9 3 5 3 4 4 5 6 5 4 5 12 12 6 7 7 12 24 18 7 5 5 6 9 7 7 6 3 5 6 4 4 3 4 4 2 6 7 3 3 6 5 3 3 3 2 1 2 3 2 1 0 1 2 2 5 3 2 2 1 2 3 1 1 1 4 3 3 3 3 4
18 17 13 8 8 10 12 9 7 8 10 16 19 15 12 12 9 3 1 3 2 1 2 2 3 5 3 3 10 8 5 5 3 8 19 13 3 3 3 4 7 8 9 9 10 9 6 3 4 4 5 3 4 8 9 4 3 5 6 4 2 3 3 2 2 2 2 1 2 2 2 1 4 4 3 2 1 0 3 3 4 4 5 3 3 5 3 2
19 17 15 10 6 5 8 8 9 13 13 14 15 13 11 8 3 3 2 2 2 1 0 1 2 3 2 3 8 3 2 3 2 6 13 10 4 2 1 1 3 6 5 8 10 9 6 2 3 4 4 4 5 6 8 4 1 3 4 4 2 3 4 4 3 2 1 2 3 2 2 1 2 4 3 3 2 3 4 4 6 6 5 5 4 4 2 2
18 18 16 14 8 4 3 5 7 10 9 8 9 9 7 5 3 4 1 2 3 1 2 1 0 4 5 8 8 1 1 3 1 7 12 10 5 1 1 2 1 4 3 4 5 4 5 5 4 4 3 3 5 5 6 5 1 1 1 4 3 2 2 3 3 2 1 1 3 2 3 1 1 0 2 4 3 4 4 6 7 5 4 4 3 2 2 3
17 18 16 15 12 7 3 3 4 5 4 4 5 5 3 2 2 4 1 2 2 2 3 3 2 5 6 10 10 2 2 4 3 7 14 12 7 1 2 3 2 3 1 2 2 1 5 8 8 7 3 4 5 3 5 5 3 1 3 4 3 2 1 2 3 2 0 1 2 3 1 1 1 2 2 2 3 4 3 5 5 4 4 3 2 1 1 2
16 17 16 14 13 10 6 4 3 2 1 5 6 3 2 1 1 2 1 2 2 1 1 2 2 4 4 8 12 5 2 5 1 6 13 11 7 2 4 6 4 4 2 1 3 1 4 6 7 7 5 5 3 2 5 6 2 2 3 3 2 1 1 1 2 3 1 3 1 5 4 2 1 3 1 1 3 3 3 3 2 1 1 1 1 2 2 3
15 15 17 14 11 9 6 3 2 2 3 6 5 3 3 0 2 1 2 1 2 1 1 2 2 4 5 4 8 7 2 4 2 5 10 8 9 6 4 4 5 9 9 6 6 3 2 3 4 4 4 3 3 2 3 3 1 1 3 3 3 2 1 1 0 3 1 3 1 5 5 2 0 2 1 1 2 3 4 4 4 4 5 4 3 2 3 4
14 14 17 15 9 8 5 5 5 3 4 5 4 3 3 1 2 2 2 1 1 1 1 3 2 4 6 3 4 7 6 5 3 4 4 4 9 9 3 1 3 8 8 9 8 3 3 1 2 2 2 2 3 3 1 1 2 1 1 2 3 2 2 2 1 2 1 1 1 3 4 2 1 1 0 1 1 1 3 3 4 5 6 6 5 4 5 5
14 13 16 17 13 10 5 3 4 1 3 4 5 3 2 0 2 3 2 0 0 1 2 3 2 3 5 4 3 6 5 4 5 5 5 3 7 9 4 2 3 3 3 5 5 2 2 1 1 1 1 2 2 3 1 2 2 1 2 2 1 0 1 0 0 1 3 1 3 0 2 1 2 1 1 3 2 2 2 3 4 5 6 6 5 5 6 5
14 11 15 18 15 11 6 2 2 1 4 5 5 2 1 1 3 1 1 1 1 1 1 2 1 2 3 3 3 5 3 3 4 4 3 3 5 6 6 5 3 1 3 4 2 1 2 2 1 1 2 3 3 2 1 2 2 2 2 2 2 2 2 2 2 2 2 1 3 1 1 0 2 2 3 4 3 3 2 2 3 3 5 5 5 5 5 5
13 9 12 18 16 12 8 3 2 3 6 5 3 0 1 3 2 0 0 1 1 0 0 1 2 2 2 2 3 4 1 1 4 4 2 2 5 4 7 8 5 1 1 3 2 1 2 2 3 4 2 5 6 2 2 3 4 4 2 2 3 2 3 2 3 2 1 1 2 1 1 0 1 1 3 4 4 3 2 2 2 1 3 5 5 4 5 6
11 8 9 16 18 13 9 4 2 5 6 3 1 2 5 4 0 0 0 0 0 1 0 0 2 2 3 3 1 2 2 1 4 5 5 4 5 3 4 9 10 4 2 3 2 2 2 1 5 5 3 5 7 3 1 3 4 4 2 0 2 3 2 1 0 1 2 4 3 1 1 1 2 1 1 4 4 2 1 1 1 3 5 5 5 5 4 5
10 7 7 15 19 14 9 5 2 5 4 1 3 4 5 3 1 1 1 1 0 1 1 1 1 1 3 2 1 1 2 2 3 4 6 4 3 3 4 6 9 6 2 2 2 1 3 1 3 2 2 3 4 2 1 1 3 4 2 2 2 0 1 2 1 1 2 2 3 2 0 1 2 2 1 3 1 2 4 4 4 4 5 4 4 4 4 3
9 6 6 13 19 15 10 4 3 5 3 2 5 4 2 1 1 1 1 1 0 0 1 1 2 1 2 1 2 2 1 1 2 2 4 3 3 3 2 2 5 6 3 2 2 1 2 0 3 2 1 2 3 3 2 1 1 3 2 2 1 0 2 3 1 1 3 2 2 1 1 2 1 2 2 2 2 4 4 4 4 4 5 3 3 4 4 3
7 4 3 11 18 15 9 4 5 6 1 3 6 3 1 1 1 1 2 2 0 0 1 1 2 2 1 1 2 4 2 1 2 2 1 1 2 3 3 1 2 3 2 2 1 0 1 0 3 2 1 1 1 3 4 2 2 1 2 1 2 1 2 3 1 2 2 1 2 0 1 3 1 1 2 2 3 3 1 2 3 5 5 5 5 5 5 5
5 2 1 9 18 13 7 4 5 4 1 5 6 2 1 0 1 1 3 3 0 0 1 1 1 1 0 1 1 4 3 2 3 2 2 1 1 1 2 1 2 2 1 0 1 1 1 1 2 2 1 1 1 3 4 2 3 3 1 2 2 2 1 0 1 1 1 2 3 2 3 3 1 1 2 2 2 5 5 5 5 6 6 6 5 5 5 6
4 1 0 9 17 11 7 4 3 0 3 5 4 1 1 1 1 1 2 2 1 1 2 1 0 1 2 1 0 2 2 2 2 1 1 1 1 1 1 0 1 2 2 3 1 1 1 2 1 3 1 1 2 3 3 3 2 3 2 1 0 1 1 1 0 2 2 0 3 4 4 2 1 2 1 2 3 4 5 5 4 5 6 5 5 5 5 5
3 1 1 10 17 8 6 7 4 4 5 4 2 1 0 1 2 2 2 2 1 0 2 1 0 2 1 0 1 1 1 2 1 1 1 1 1 2 3 1 2 3 4 4 1 0 1 2 0 3 2 1 1 1 2 2 2 3 3 3 3 2 1 1 1 0 2 1 1 3 4 3 3 2 1 2 2 2 3 4 5 5 6 5 5 5 5 5
2 2 1 12 17 5 4 9 7 5 4 3 2 2 1 0 2 2 2 1 1 0 1 2 1 2 2 1 1 1 1 1 2 2 1 1 1 1 2 2 3 4 4 3 2 2 2 1 0 2 1 1 1 1 1 0 1 0 1 2 3 3 1 1 2 2 0 1 2 2 3 5 4 2 2 2 1 3 4 4 5 5 5 5 5 4 5 5
2 1 2 13 16 3 4 7 4 3 3 2 2 2 1 1 1 1 1 0 1 1 1 1 2 2 1 1 0 1 1 1 1 2 1 1 3 2 1 3 3 3 2 2 1 1 1 0 1 1 0 1 2 1 1 1 2 2 1 2 3 3 0 1 2 2 1 1 1 2 2 6 5 3 3 3 4 5 5 5 6 5 5 5 4 4 5 5
2 0 3 13 14 2 5 6 2 4 4 1 1 1 2 2 1 1 0 1 1 1 1 1 1 1 1 0 1 1 2 2 1 2 2 2 3 2 1 3 3 3 2 1 1 1 1 1 0 1 0 1 1 1 1 3 2 0 2 2 1 2 1 1 1 2 2 2 1 2 2 6 5 4 4 4 5 5 6 6 6 5 5 4 3 4 5 5
1 1 2 11 13 3 4 4 3 2 2 1 1 2 1 2 3 2 1 2 2 2 1 1 1 2 1 1 2 2 1 1 2 2 2 2 1 0 2 4 4 3 2 1 0 2 1 1 1 1 1 2 2 1 2 3 1 1 1 2 2 2 3 2 1 2 0 3 4 3 3 6 4 3 4 5 6 6 6 4 3 2 2 3 3 4 5 5
1 1 2 7 13 8 3 2 4 5 3 3 3 1 1 2 2 1 1 2 2 2 2 1 2 2 3 2 3 3 2 2 1 1 1 2 2 1 3 4 3 3 2 1 2 2 1 1 0 0 1 1 2 2 1 1 1 2 1 2 1 2 4 1 1 2 2 2 3 4 5 5 3 3 4 5 4 5 6 5 3 2 2 3 4 4 5 5
1 1 2 4 9 8 3 1 4 6 5 4 3 1 1 2 1 0 1 1 1 1 2 2 2 2 2 2 3 3 2 2 2 1 1 2 2 1 1 2 3 3 1 2 3 2 0 1 1 0 3 4 4 3 2 2 1 3 2 3 4 4 5 2 1 2 4 2 2 6 7 7 8 7 5 6 6 7 6 6 5 4 4 4 4 5 5 5
1 0 1 1 3 4 4 4 4 5 4 4 3 2 3 3 2 0 2 1 1 1 2 2 1 0 1 1 2 2 0 1 2 2 2 2 1 1 1 1 2 1 1 2 3 1 0 1 1 1 5 6 5 5 4 4 3 5 4 4 6 6 6 5 4 4 3 3 3 6 4 5 9 8 6 8 8 7 6 6 5 4 4 5 5 5 6 6
1 1 1 1 0 1 2 2 3 5 5 4 2 2 4 4 3 1 1 1 1 1 1 2 1 2 1 1 2 2 1 1 1 1 1 1 1 2 1 0 0 1 0 1 2 2 1 1 1 0 6 8 8 7 5 6 5 5 5 6 6 7 8 9 9 7 3 3 6 4 2 6 10 9 9 9 8 7 6 5 5 6 6 6 6 6 6 7
2 2 1 0 1 2 0 1 3 6 6 4 2 2 4 6 4 1 1 1 0 1 1 2 2 3 2 2 2 2 2 0 1 1 2 2 1 2 1 1 1 0 1 1 1 2 2 1 0 0 6 9 7 4 3 5 4 5 7 8 7 8 10 10 10 8 7 9 11 9 11 13 12 10 10 10 8 7 6 4 5 6 6 4 5 6 7 7
1 2 1 2 3 2 0 0 2 4 3 2 1 1 3 6 5 2 1 2 2 2 2 3 4 4 3 3 4 3 1 1 1 2 3 4 1 2 2 1 1 1 1 1 0 1 1 1 1 2 3 6 2 2 1 3 5 7 8 8 7 8 8 9 9 8 7 10 12 11 11 13 11 9 9 8 7 5 5 6 6 5 3 3 6 7 7 7
1 2 3 4 3 1 0 0 0 2 2 1 1 3 3 5 7 4 2 1 1 2 2 5 7 5 2 4 6 4 1 3 4 2 2 4 2 1 1 1 3 4 2 0 0 1 1 1 1 3 2 4 2 1 3 4 4 8 10 9 10 8 6 7 7 7 8 7 6 6 6 8 8 5 4 6 6 6 6 7 6 4 3 4 6 7 7 7
2 1 1 3 3 1 2 1 1 1 2 1 1 3 3 4 7 5 3 1 1 2 1 2 4 4 2 4 5 3 2 4 5 3 3 4 4 4 4 4 5 4 3 2 1 1 1 1 0 2 0 4 3 4 6 2 4 6 7 8 11 10 7 6 6 8 10 7 4 5 6 6 4 2 3 6 6 6 6 5 4 5 5 5 6 6 6 6
Wind_Direction
35 30 27 21 14 7 2 359 357 2 35 52 38 42 34 17 4 1 17 23 23 24 19 340 258 238 234 234 247 306 351 24 24 25 28 7 359 4 3 5 5 5 12 11 8 347 87 89 80 71 62 47 30 8 21 11 359 37 63 73 71 59 51 33 60 93 112 113 108 111 101 99 110 108 123 101 76 81 78 74 73 63 67 79 99 126 145 182
31 30 28 22 15 10 6 6 11 22 57 69 46 33 20 11 3 358 18 29 32 29 27 16 311 249 240 238 238 272 313 25 25 23 12 1 5 13 12 15 12 19 32 18 4 12 62 68 62 66 56 49 27 15 33 23 28 46 73 74 71 68 52 47 72 91 102 105 95 86 90 93 106 130 159 92 79 79 78 84 89 80 83 96 103 133 167 216
28 33 30 22 18 15 15 19 32 53 72 71 42 22 25 27 27 25 25 38 42 38 37 37 21 276 248 244 241 265 263 6 27 16 356 357 5 11 15 18 19 30 31 11 352 2 51 71 71 72 64 59 36 34 43 19 32 48 76 82 82 84 68 58 74 88 94 103 100 87 83 77 73 114 132 94 80 65 63 73 87 92 101 117 139 169 183 196
25 33 30 23 21 20 23 34 49 65 70 63 43 46 53 45 40 38 36 44 44 46 48 51 53 50 264 240 239 253 272 354 28 358 348 354 3 7 16 22 24 28 18 14 357 0 59 71 75 74 71 72 57 56 50 25 44 56 67 89 97 94 80 61 72 89 95 102 103 100 93 77 47 46 109 113 88 60 55 50 55 82 99 121 147 160 168 174
22 29 29 25 24 25 30 43 58 68 65 60 55 69 70 42 36 39 41 40 33 50 53 59 62 61 66 77 168 232 268 37 0 345 348 354 2 5 12 23 27 18 1 351 342 21 74 67 65 61 57 72 63 65 61 51 79 75 61 82 94 93 90 70 62 86 101 105 99 97 86 78 60 41 54 84 83 67 51 50 50 60 71 87 103 118 141 139
21 24 25 25 27 29 33 44 56 63 60 60 67 77 67 21 27 44 47 45 37 10 33 62 66 64 65 70 77 74 80 100 334 339 350 356 4 6 7 21 25 18 2 344 10 63 78 72 70 66 64 70 64 67 68 53 73 92 73 73 80 81 92 83 58 71 91 95 91 92 87 86 82 63 52 67 76 74 57 58 60 60 65 82 91 91 103 93
20 19 22 23 26 31 33 39 45 53 61 69 72 64 50 27 37 52 51 48 45 31 312 274 94 78 65 61 66 65 76 72 334 342 353 359 9 10 12 24 24 27 23 25 53 68 72 79 77 79 82 77 74 76 75 66 67 89 92 79 79 78 81 79 67 67 75 84 86 92 92 85 85 82 66 68 73 74 72 66 66 76 79 87 90 72 62 67
17 17 21 19 22 28 30 32 32 46 72 81 69 56 63 65 61 56 47 46 46 43 31 272 223 149 55 50 62 60 63 2 336 347 356 3 14 17 33 38 26 38 38 32 42 59 63 72 73 77 82 84 93 95 93 79 64 76 95 92 86 83 81 83 83 80 78 78 80 83 83 80 88 92 73 69 69 62 82 75 63 87 78 71 75 64 50 68
15 15 18 19 20 18 22 24 23 42 80 87 60 58 77 73 54 40 37 41 44 49 49 53 160 163 55 89 82 63 27 338 336 348 358 7 14 22 44 42 32 48 47 34 36 54 61 68 69 68 84 92 97 103 99 82 70 84 98 100 94 89 87 85 82 86 88 89 94 91 93 102 109 101 71 66 59 35 97 89 58 83 81 73 66 56 27 16
16 12 15 19 19 11 11 13 15 42 76 76 43 60 81 49 25 21 35 46 43 51 57 62 80 103 85 66 73 74 349 336 347 351 359 11 17 27 40 39 39 48 49 38 35 42 43 56 68 69 77 77 72 69 64 79 106 108 100 98 94 93 91 87 85 89 96 103 106 100 99 104 111 98 74 73 49 326 115 100 82 81 84 85 71 59 31 329
18 12 15 18 19 18 7 2 10 63 76 63 48 54 53 13 21 29 45 54 47 49 60 63 71 80 73 61 69 69 342 342 352 352 1 15 23 31 33 36 42 44 46 42 31 24 18 25 40 59 74 77 76 69 69 93 113 112 108 101 95 97 90 87 93 94 102 92 89 105 103 79 56 65 82 87 54 309 30 99 106 89 89 105 98 145 232 251
21 18 16 20 26 27 10 4 26 94 81 66 66 65 58 45 46 44 46 49 47 53 66 70 63 70 65 59 61 20 356 354 351 351 7 20 28 34 34 38 45 46 49 44 27 22 27 19 14 75 101 106 93 82 95 115 121 125 117 106 106 98 74 63 78 88 99 51 14 94 102 65 54 76 89 85 97 273 255 117 115 95 81 73 54 273 240 221
24 26 20 23 38 38 20 21 59 98 87 71 75 74 65 59 59 55 50 46 43 56 68 69 63 70 68 62 40 21 16 11 360 352 12 25 33 38 40 42 45 49 52 49 34 31 46 61 70 86 101 102 92 108 136 139 141 143 124 123 133 104 58 43 52 64 101 79 338 65 76 61 71 89 95 73 303 273 227 100 68 59 51 57 22 312 348 50
28 31 25 29 50 50 39 55 77 83 82 69 73 70 53 57 67 67 60 53 50 57 68 62 59 65 67 89 38 24 20 21 20 12 14 21 28 33 39 40 39 44 49 51 48 44 54 67 73 76 64 66 100 130 134 145 175 145 129 165 152 90 47 33 31 358 94 146 218 100 52 86 96 95 103 87 307 301 64 73 51 47 32 56 49 18 49 57
31 32 29 33 60 65 57 76 84 78 74 62 53 37 15 59 80 70 55 45 49 62 74 68 70 74 72 99 42 15 16 23 19 11 9 11 15 16 14 19 26 32 44 50 48 49 55 62 70 72 66 82 127 141 137 159 193 155 124 341 14 84 105 50 41 16 43 166 211 218 65 98 108 105 108 58 307 307 46 69 50 56 43 43 45 42 62 66
30 32 32 35 65 84 73 83 90 87 82 72 62 54 46 55 107 355 11 20 38 59 67 61 68 92 90 68 4 7 17 15 4 4 7 8 11 4 352 356 8 15 31 38 26 30 44 44 62 79 81 97 166 173 164 131 105 64 75 44 20 82 144 107 54 23 350 265 201 226 131 107 108 113 127 73 304 298 53 85 60 55 47 45 42 50 67 72
29 31 34 37 62 103 105 98 98 93 84 70 57 51 53 54 52 281 315 353 45 49 50 39 49 87 74 24 4 1 360 357 359 5 4 359 10 14 3 359 353 345 335 2 8 3 6 16 46 79 55 36 2 354 142 71 27 17 48 79 52 56 97 124 75 18 338 313 109 78 75 95 110 127 133 125 294 304 58 66 56 60 52 53 46 48 53 61
29 32 36 39 53 104 158 161 148 116 38 12 10 19 46 51 56 60 47 59 66 18 31 21 23 85 55 14 1 325 328 349 5 7 1 353 9 13 2 343 313 320 309 341 4 4 13 19 39 63 36 26 19 19 77 65 358 359 15 61 86 62 59 56 49 9 346 345 66 77 90 104 122 132 125 136 269 301 76 59 54 63 51 59 52 44 40 50
27 30 36 39 46 54 209 223 239 263 286 312 341 345 6 44 51 49 43 52 56 25 30 6 8 96 54 349 334 318 319 344 7 9 7 1 353 352 344 319 310 342 28 54 13 13 29 39 36 46 25 14 18 23 46 32 344 341 0 40 68 74 63 50 57 11 354 359 33 64 96 122 134 136 137 156 251 285 103 89 71 65 50 50 45 38 27 44
27 28 35 38 41 37 345 251 256 271 292 313 332 346 355 64 37 33 33 48 59 61 81 27 31 82 62 325 333 341 337 351 21 13 8 359 334 332 340 314 17 45 39 43 44 10 30 67 49 31 9 357 5 10 3 347 336 330 359 61 63 79 89 59 45 9 1 20 29 66 101 125 131 136 136 151 229 229 163 138 108 60 59 56 46 30 13 29
28 26 31 35 38 36 25 294 270 272 304 340 347 6 42 1 61 119 34 56 63 65 83 79 73 81 48 325 343 351 344 25 24 12 8 8 339 323 353 350 45 50 19 59 90 7 39 67 49 6 354 335 335 342 337 334 342 341 356 71 63 64 80 62 26 358 22 51 73 105 131 133 127 135 139 170 219 206 76 61 59 25 16 33 43 26 4 2
28 27 30 35 37 36 37 53 78 91 81 48 60 75 88 96 114 137 147 85 55 41 82 82 71 76 39 18 4 359 356 13 13 8 6 8 17 33 20 34 60 50 2 60 137 59 52 61 32 12 341 303 301 330 334 329 352 3 354 48 69 55 72 65 10 345 28 35 76 135 221 149 132 136 148 199 229 103 57 20 27 7 334 342 20 3 340 345
27 28 30 36 40 39 40 53 84 97 108 106 96 92 100 110 124 137 111 103 81 9 59 57 52 47 16 28 14 11 42 27 359 354 358 0 19 24 20 52 63 57 35 36 84 78 71 53 14 353 294 287 10 25 5 352 42 30 17 49 60 29 46 70 355 343 5 4 355 340 304 139 126 132 169 201 325 79 106 341 302 288 295 318 345 309 304 337
25 27 29 36 45 43 43 52 81 88 98 109 102 101 117 118 121 128 50 104 104 31 45 41 64 48 31 22 5 15 66 44 1 339 353 3 11 329 358 50 52 60 59 59 72 80 81 57 342 304 285 313 44 41 21 21 71 45 32 52 46 6 14 12 347 334 316 281 296 319 305 186 147 165 196 167 67 308 179 208 242 232 233 248 273 267 261 314
23 24 27 31 41 50 51 55 77 87 91 98 100 108 120 117 88 27 71 100 58 64 5 74 118 41 32 4 355 355 133 55 50 341 351 9 1 314 14 1 31 59 77 77 78 76 63 35 308 309 316 354 47 52 20 3 99 77 31 15 348 347 343 334 341 341 340 301 304 8 52 322 173 174 182 147 183 239 194 203 244 239 215 212 243 269 310 341
22 23 24 28 32 36 46 52 78 94 94 88 104 123 116 100 62 29 103 117 36 337 337 1 176 2 358 348 344 216 130 16 335 356 7 14 360 243 59 338 31 65 78 77 81 83 34 4 340 327 299 0 56 63 26 6 29 81 307 299 308 305 300 321 336 350 58 251 290 22 73 356 319 151 128 138 219 241 190 204 239 242 225 220 237 273 357 355
22 23 23 26 27 32 61 101 105 95 87 118 137 138 124 111 63 26 69 100 31 309 343 358 334 357 351 344 351 122 119 323 282 15 13 8 351 274 62 27 43 57 68 78 60 26 5 3 1 356 359 47 47 37 11 2 24 120 235 263 281 269 303 358 346 305 236 153 317 348 21 159 226 315 56 91 268 265 231 226 230 222 226 237 253 292 358 335
22 23 24 24 26 39 68 102 130 78 73 168 171 159 163 185 338 1 63 91 359 294 345 353 335 1 349 345 9 74 161 312 338 359 349 3 11 8 66 48 57 66 53 125 114 70 0 15 5 356 26 53 31 5 345 341 33 148 226 252 258 286 344 7 335 277 251 93 18 326 344 82 187 276 318 335 292 304 341 8 40 43 346 333 332 320 301 286
20 22 22 22 25 39 58 73 96 119 138 161 165 165 171 97 352 19 72 149 312 317 262 334 336 350 335 334 24 52 29 2 50 323 328 10 26 32 79 48 56 65 42 52 107 134 62 36 344 344 29 32 350 345 345 338 19 184 236 256 246 265 254 176 286 284 317 79 341 321 349 51 190 268 254 257 289 350 358 21 50 40 15 357 337 313 293 289
17 22 21 20 25 29 41 58 61 118 157 159 162 162 164 96 45 60 46 197 298 310 275 359 345 309 331 358 38 25 25 32 14 328 342 31 19 25 90 202 53 70 57 61 76 105 117 37 315 20 38 324 291 292 287 261 303 308 269 248 221 231 238 179 189 267 19 42 252 320 354 75 106 291 125 139 178 19 349 353 27 26 8 356 353 347 335 330
15 20 19 21 27 25 26 49 40 102 166 157 161 149 142 101 55 92 89 94 36 309 313 14 3 321 356 47 41 0 19 29 358 6 21 27 15 16 30 3 12 65 83 70 68 106 115 28 343 96 235 291 284 265 229 224 280 301 235 241 160 176 313 33 173 70 74 301 241 247 349 76 127 253 120 121 141 109 54 6 14 8 352 347 352 350 343 340
13 17 19 21 25 27 32 45 16 97 157 149 152 143 120 50 28 74 140 346 1 358 358 5 353 346 3 66 39 348 358 6 0 31 17 21 40 34 49 36 336 42 55 26 58 138 33 24 10 231 236 356 350 277 292 289 290 325 277 316 28 36 19 24 347 25 83 248 230 179 344 242 179 208 148 131 117 97 83 60 40 9 339 327 328 332 326 317
10 14 20 19 20 24 27 35 54 120 146 142 142 128 69 73 38 315 250 345 337 294 3 320 322 335 337 49 19 343 355 330 342 10 355 35 62 66 75 50 8 50 44 355 46 31 347 341 356 358 314 357 12 24 11 330 325 355 359 12 37 69 60 10 332 351 32 274 243 199 10 289 228 285 144 132 107 100 95 87 79 338 292 286 283 284 290 292
8 15 16 15 20 23 18 24 99 140 146 133 96 54 57 69 104 250 99 324 275 262 243 5 305 344 30 58 357 329 51 21 332 10 11 23 46 33 40 30 18 17 315 2 47 17 22 333 349 9 313 337 16 47 322 306 310 318 284 36 64 92 107 138 308 308 277 306 305 296 19 192 209 277 129 122 112 118 140 155 203 261 263 266 270 272 281 297
6 16 16 13 15 16 15 22 129 149 145 94 55 59 64 96 189 106 123 209 185 251 206 81 285 341 41 40 278 298 75 25 342 30 27 21 43 19 356 2 9 9 352 30 10 347 100 151 306 336 274 331 11 331 304 1 304 280 283 41 67 125 131 132 124 182 183 348 319 259 256 168 186 237 183 122 138 213 217 214 219 257 273 280 290 294 299 313
6 16 24 13 7 7 12 20 141 146 142 72 65 56 62 151 194 61 27 268 94 204 139 79 330 31 79 14 350 1 88 38 336 31 40 40 64 42 32 5 2 12 34 69 20 351 110 197 294 292 308 14 13 317 320 76 303 296 346 37 204 243 96 112 46 20 107 75 290 260 1 327 303 271 222 187 259 245 214 214 227 260 286 313 322 314 315 319
7 15 27 9 4 4 8 28 135 147 156 63 74 77 108 177 251 12 1 332 76 76 82 67 352 38 91 44 7 352 15 42 335 11 59 59 67 24 22 57 6 14 46 109 93 85 145 236 301 320 351 349 2 323 298 227 150 27 351 206 195 43 87 133 81 15 54 7 264 347 356 283 265 299 269 245 284 305 10 3 328 317 328 342 333 325 330 331
3 17 87 7 4 4 10 53 128 151 53 67 76 106 149 51 282 349 358 338 315 49 45 62 27 71 61 42 12 328 351 15 341 21 66 47 59 332 332 52 24 13 302 275 102 167 169 123 305 307 332 289 326 9 322 273 124 83 29 194 157 66 25 264 102 138 21 324 280 310 336 305 197 214 298 306 331 352 1 357 346 332 332 334 325 326 333 329
3 15 159 1 3 11 30 57 135 102 48 80 85 123 135 64 67 52 6 327 267 52 50 64 95 73 41 44 95 315 4 29 354 44 88 43 55 336 339 124 345 357 339 342 65 199 223 103 302 282 262 315 347 40 17 326 341 27 23 333 299 119 155 246 99 172 162 264 301 322 338 324 220 201 300 354 9 7 341 326 326 313 311 315 314 322 324 316
10 31 210 353 0 16 51 51 55 36 55 82 82 108 97 62 102 82 31 346 287 85 50 35 159 100 74 300 280 334 40 48 18 64 54 38 98 11 28 46 329 342 344 345 48 106 323 95 12 296 312 24 1 47 43 334 326 2 9 348 340 3 129 148 11 36 149 161 301 324 314 275 240 213 118 59 9 344 306 300 294 288 296 305 309 317 313 307
4 43 251 351 358 0 61 47 42 37 71 97 67 82 74 44 117 94 68 18 358 266 339 28 83 120 141 175 295 327 67 64 35 59 57 38 64 33 13 359 333 328 331 344 27 19 10 84 346 296 310 68 129 151 38 227 213 347 346 347 348 332 327 67 326 308 148 154 165 184 275 270 253 229 136 128 191 239 259 272 273 274 286 300 307 304 300 301
24 56 298 350 1 28 82 53 38 27 68 96 42 52 16 12 117 101 122 106 7 331 319 24 71 84 107 153 302 343 42 48 16 35 60 48 47 46 317 314 315 299 323 38 63 31 42 120 308 274 101 80 140 140 44 281 204 166 195 317 336 315 309 115 261 245 173 18 105 136 252 267 258 232 197 192 205 226 251 260 259 265 272 279 287 294 297 297
62 227 306 354 359 34 84 64 54 31 51 93 313 358 1 18 76 93 5 29 1 347 22 19 2 41 62 175 103 47 18 22 8 28 75 78 53 37 334 338 327 307 329 72 103 21 25 112 354 289 315 44 154 154 1 341 357 59 228 255 321 336 36 121 181 155 147 202 151 102 261 263 260 235 224 236 237 243 259 255 243 250 267 275 291 306 305 299
48 251 295 2 4 24 101 90 123 85 69 139 44 34 10 24 49 49 31 46 15 340 65 73 320 17 53 65 83 69 8 39 35 18 63 87 78 327 10 9 355 358 27 69 261 310 353 96 74 323 342 349 344 315 322 334 336 272 229 157 105 70 70 57 61 80 106 221 156 132 249 257 246 225 239 251 250 259 274 271 245 252 300 313 311 306 301 303
1 308 264 5 22 52 103 145 136 125 134 132 89 64 87 66 64 52 14 44 27 347 69 73 329 20 60 62 77 64 40 86 88 6 43 73 118 124 36 15 10 42 64 5 323 306 8 72 9 112 126 203 250 234 254 305 238 233 135 134 161 139 140 149 56 97 238 233 142 161 231 261 268 254 265 276 286 301 306 315 340 4 344 322 309 301 297 300
34 24 305 350 24 52 73 22 97 116 148 146 122 135 125 95 107 125 6 41 32 351 78 98 315 359 45 43 71 64 39 54 74 115 85 82 121 142 22 18 47 75 123 325 345 349 17 44 48 336 229 221 226 229 190 130 210 232 187 189 202 190 192 197 78 196 202 172 197 224 232 266 283 283 295 309 316 314 309 319 333 336 328 319 306 295 289 285
88 80 351 344 5 44 53 33 65 106 152 154 139 152 134 112 123 94 351 25 111 7 68 86 7 328 150 117 99 103 56 26 40 61 74 73 93 135 209 179 82 82 221 295 343 27 14 291 44 330 265 249 256 258 196 153 212 230 213 214 201 186 195 199 209 225 160 115 253 246 210 247 274 283 296 299 303 304 303 312 318 313 304 295 284 283 290 293
66 137 119 99 5 52 44 19 67 90 94 96 104 134 128 128 141 142 357 27 106 219 117 89 243 234 188 116 120 142 159 32 43 75 95 113 146 162 193 275 51 112 84 338 340 38 80 275 249 250 276 271 268 262 216 182 218 235 225 228 210 188 192 201 220 238 201 191 247 278 331 276 273 283 288 284 283 283 284 292 299 293 282 273 277 290 294 292
80 92 49 3 107 125 194 295 100 96 91 89 97 158 155 147 147 145 120 84 5 230 135 107 185 195 120 50 46 112 136 33 308 206 159 137 156 183 191 333 332 120 77 79 5 23 98 178 168 336 292 285 279 277 237 204 226 245 232 227 218 208 207 212 227 239 241 252 265 287 297 285 276 271 272 271 266 266 279 296 292 278 270 277 294 297 290 285
116 131 145 84 82 91 27 289 109 97 87 72 94 182 177 154 153 172 147 118 133 173 164 131 130 124 97 59 67 87 64 346 64 186 154 132 170 231 197 153 123 113 357 77 38 348 72 135 127 87 317 293 297 29 318 217 224 246 243 227 219 226 228 228 233 231 235 257 267 270 276 280 275 261 256 260 261 265 279 284 276 262 265 314 313 299 289 287
70 138 145 111 88 83 93 73 49 96 121 229 158 171 190 170 162 153 105 64 106 128 149 139 129 120 79 72 87 93 21 50 92 104 97 119 154 194 148 105 121 140 166 124 355 332 84 140 142 84 355 288 256 186 238 241 255 267 267 243 219 218 224 224 226 214 204 223 247 253 258 262 257 247 249 256 258 265 266 266 274 283 294 302 296 291 289 287
87 100 152 101 87 243 195 133 356 126 158 212 133 155 189 166 153 134 98 85 78 67 61 148 140 136 121 107 113 125 105 96 105 81 54 80 89 81 75 61 72 106 149 133 71 346 56 274 202 96 292 272 260 214 212 257 327 295 271 228 198 198 217 235 246 228 210 197 185 208 229 240 242 271 308 288 279 276 270 262 268 279 280 277 275 276 281 283